SCP
0 0 0 0 0 0 0 0 0 0 1 2 2 1 0 0 0 0 0 0 0 0 0 0 0 0 0 0 1 1 1 1 1 1 1 1 1 1 1 1 1 0 1
0 0 0 0 0 0 0 0 0 0 0 1 3 3 3 2 1 0 1 1 0 0 0 0 1 0 1 1 1 1 1 1 1 2 2 2 1 1 1 1 1 1 1
0 0 0 0 0 0 0 0 0 0 0 0 0 2 3 3 3 2 2 2 1 1 2 2 1 1 1 1 1 1 1 2 1 1 2 2 1 1 1 1 1 1 1
0 0 0 0 0 0 0 0 0 0 0 0 0 1 1 2 3 3 2 4 2 2 2 2 2 2 2 2 2 1 2 3 3 1 1 1 1 1 1 1 0 1 1
0 0 0 0 0 0 0 0 0 0 0 0 0 0 0 1 2 3 3 3 3 2 2 2 2 2 2 2 2 2 2 2 4 2 1 1 1 1 1 0 1 0 1
0 0 0 0 0 0 0 0 0 0 0 0 0 0 1 1 1 2 2 3 3 2 2 2 3 3 3 2 2 2 2 3 2 2 1 1 1 1 1 1 1 1 1
0 0 0 0 0 0 0 0 0 0 0 0 0 0 0 1 2 2 3 3 3 3 3 4 3 4 3 2 2 2 2 3 2 1 1 1 1 1 1 1 1 1 0
0 0 0 0 0 0 0 0 0 0 0 0 0 0 0 0 1 2 2 1 2 3 3 2 3 3 2 2 2 2 2 2 1 1 1 0 0 0 1 1 1 0 0
0 0 0 0 0 0 0 0 0 0 0 0 0 0 0 0 0 2 2 2 2 2 2 2 3 2 2 2 2 3 2 2 1 1 0 0 0 0 1 1 0 0 0
0 0 0 0 0 0 0 0 0 0 0 0 0 0 0 0 0 1 1 1 1 1 2 2 2 3 3 3 3 3 2 2 1 1 0 0 1 1 1 0 0 0 0
0 0 0 0 0 0 0 0 0 0 0 0 0 0 0 0 0 0 0 1 1 1 1 2 2 3 4 3 3 3 2 1 1 1 0 1 1 1 0 0 0 0 0
0 0 0 0 0 0 -0 0 0 0 0 0 0 0 0 0 0 0 0 1 1 1 1 1 2 4 3 3 3 2 1 1 1 0 0 0 0 1 0 0 0 0 0
0 0 0 0 0 0 0 0 0 0 0 0 0 0 1 0 0 0 1 1 1 1 1 2 3 4 4 3 2 1 1 1 0 1 0 1 0 1 0 0 0 0 0
0 0 0 0 0 0 0 0 0 0 -0 0 0 0 1 1 0 0 1 1 2 2 2 2 3 3 3 2 2 1 1 1 1 1 1 1 0 0 0 0 0 0 0
0 0 -0 -0 0 0 0 0 -0 0 -0 0 0 0 1 1 0 0 1 2 2 2 2 2 3 3 2 2 1 1 1 1 1 1 0 0 0 0 0 0 0 0 0
0 0 0 0 0 0 0 0 -0 0 -0 0 -0 0 1 1 1 1 2 2 2 2 2 2 3 2 2 0 0 0 1 0 0 0 0 0 0 0 0 0 0 0 0
0 0 -0 -0 -0 -0 0 0 0 0 0 0 0 0 1 1 1 2 2 2 2 3 3 2 2 2 0 0 0 0 0 0 0 0 0 0 0 0 0 0 0 0 0
-0 -0 -0 -0 -0 -0 -0 0 0 0 0 0 0 0 1 0 1 2 3 3 3 2 3 2 1 0 0 0 0 0 0 0 0 0 0 0 0 0 0 0 0 0 0
-0 -0 -0 -0 -0 -0 0 0 0 0 0 0 0 0 1 1 1 2 3 3 3 2 1 0 0 0 0 0 0 0 0 0 0 0 0 0 0 0 0 0 0 0 0
0 0 0 0 -0 0 0 0 -0 0 0 0 0 0 1 1 1 2 2 2 1 0 0 0 0 0 0 0 0 0 0 0 0 0 0 0 0 0 0 0 0 0 0
0 0 0 0 0 0 0 -0 0 0 0 0 0 1 1 1 1 1 1 0 0 0 0 0 0 0 0 0 0 0 0 0 0 0 0 0 0 0 0 0 0 0 0
-0 -0 0 -0 0 -0 0 0 -0 0 0 0 0 1 1 1 1 0 0 0 0 0 0 0 0 0 0 0 0 0 0 0 0 0 0 0 0 0 0 -0 -0 0 0
-0 -0 -0 -0 -0 0 0 0 0 0 0 0 0 0 0 0 0 0 0 0 0 0 0 0 0 0 0 0 0 0 0 0 0 0 0 0 0 0 0 -0 -0 0 0
-0 -0 -0 -0 -0 -0 -0 -0 0 0 0 0 0 0 0 0 0 0 0 0 0 0 0 0 0 0 0 0 0 0 0 0 0 0 0 0 0 0 0 0 0 0 0
-0 -0 -0 -0 -0 -0 -0 0 0 0 0 0 0 0 0 0 0 0 0 0 0 0 0 0 0 0 0 0 0 0 0 0 0 0 0 0 0 0 0 0 0 0 0
-0 -0 -0 -0 -0 0 0 0 0 0 0 0 0 0 0 0 0 0 0 0 0 0 0 0 0 0 -0 -0 0 0 0 0 -0 0 0 0 0 0 0 0 0 0 0
Wind_Speed_500mb
20 21 25 27 30 24 21 21 31 30 39 42 45 57 66 78 90 91 87 85 82 62 68 72 70 54 56 45 37 34 34 37 34 37 38 36 37 38 35 35 38 37 37
21 29 35 32 33 37 33 28 21 28 36 43 46 49 51 58 65 76 89 95 86 76 72 80 67 61 53 49 39 37 37 39 34 36 26 14 21 35 38 40 37 37 41
20 21 20 28 34 37 41 42 37 29 32 37 41 47 52 57 57 63 73 91 93 90 82 81 69 60 58 46 40 39 41 41 37 38 21 9 15 6 15 27 31 30 33
16 22 28 27 28 29 32 44 48 45 36 34 39 48 59 64 64 63 65 64 77 89 88 69 65 65 57 45 46 45 46 44 41 39 45 38 28 13 9 19 25 27 23
15 21 22 36 42 40 38 37 42 53 51 45 41 45 54 68 72 71 72 75 76 84 84 68 57 57 49 49 50 52 49 47 45 42 41 42 46 42 36 29 23 26 22
28 31 34 41 43 41 40 43 42 44 53 53 51 51 53 58 72 80 82 80 79 80 75 64 57 52 50 51 51 53 51 46 45 41 42 41 43 36 37 33 33 33 23
39 41 41 42 42 46 45 45 44 46 44 51 59 59 59 55 65 76 87 91 78 77 77 68 58 53 48 48 52 52 51 47 45 40 42 38 41 38 37 31 24 22 19
34 33 38 38 38 49 52 50 46 49 50 50 54 60 64 61 60 71 77 83 78 74 71 65 60 53 45 51 53 49 45 42 41 37 38 35 34 34 39 26 23 15 17
43 37 31 24 35 48 54 55 46 49 50 53 54 58 66 65 61 63 77 79 76 75 64 63 62 49 52 49 46 44 42 40 40 36 38 33 39 38 36 30 22 18 16
43 45 26 25 31 40 49 53 51 49 44 50 54 56 60 68 66 64 78 82 80 67 58 58 58 52 51 45 43 44 40 39 38 38 38 41 39 34 31 28 26 22 17
40 42 35 32 33 40 44 54 57 48 43 41 49 57 57 65 71 66 70 66 57 48 46 52 55 55 54 47 47 44 36 40 38 41 44 41 35 32 30 28 27 23 20
44 42 37 40 40 39 48 55 59 59 55 50 45 54 56 63 74 69 65 52 49 50 51 50 55 58 51 50 48 42 44 40 39 45 44 40 34 33 31 29 27 23 22
43 47 48 48 46 44 47 52 55 61 63 61 50 52 58 65 74 72 64 57 57 56 53 54 55 57 53 51 44 39 43 40 42 43 38 35 34 34 32 30 27 25 24
40 52 56 49 47 50 52 55 59 55 70 65 61 56 60 64 72 73 72 65 63 57 54 52 55 53 54 49 41 44 43 42 41 37 35 33 32 32 31 28 27 27 26
45 51 49 45 49 54 62 61 61 57 68 67 68 61 53 61 68 75 75 69 60 55 53 54 53 54 52 45 45 45 42 43 39 36 32 31 30 31 30 29 31 30 29
60 57 50 53 56 62 70 70 70 63 64 67 66 54 40 52 67 73 72 66 59 55 56 55 57 57 48 46 45 43 43 39 36 32 29 28 28 30 30 30 31 29 30
65 60 65 65 68 74 83 70 72 62 69 62 55 44 40 50 60 67 66 63 60 59 57 57 56 53 52 49 43 40 39 37 33 31 30 30 29 30 30 32 34 33 32
70 72 72 78 81 76 66 68 63 63 60 57 48 42 45 49 58 64 66 63 56 57 60 56 55 57 58 50 45 42 37 34 31 31 30 28 28 29 30 28 30 35 36
86 81 74 74 76 69 71 68 61 55 59 53 51 41 47 54 65 67 63 58 61 59 60 58 64 64 55 48 44 39 34 31 30 26 25 25 26 27 27 28 28 33 36
69 70 73 70 67 60 56 56 54 60 57 55 49 37 48 59 61 59 58 64 64 66 67 68 62 55 51 48 40 34 31 29 26 23 22 24 26 25 24 23 26 31 38
71 68 65 65 62 56 48 51 52 66 56 46 44 35 50 51 51 53 66 68 69 73 72 65 58 52 47 42 36 30 28 24 21 19 20 25 25 21 18 16 27 30 34
68 68 61 61 53 48 45 50 52 54 49 48 36 42 53 58 50 57 69 73 81 73 66 63 59 49 42 34 32 29 24 18 18 23 24 27 26 23 17 20 22 23 29
66 63 59 53 54 43 44 50 49 47 46 37 31 59 59 55 54 68 80 80 79 73 70 63 54 47 40 33 29 25 22 22 23 27 24 25 24 20 20 25 28 22 23
66 65 60 51 54 44 45 47 36 39 34 29 55 58 60 60 76 86 83 86 76 73 65 57 50 45 41 35 30 27 24 27 26 29 29 23 26 31 34 33 28 22 19
69 69 65 57 53 48 45 37 38 35 35 64 64 65 69 82 86 84 72 66 62 51 50 46 41 43 41 31 29 30 27 26 29 32 33 34 39 37 34 28 20 19 17
76 70 59 53 48 48 38 21 31 31 43 67 72 84 83 87 85 83 77 62 46 37 31 31 33 38 26 28 32 26 29 29 29 36 42 40 41 39 33 25 19 19 16
Wind_Direction_500mb
281 281 286 286 287 275 268 270 256 253 249 252 247 241 243 245 246 242 242 247 249 239 246 251 259 262 257 254 257 258 265 268 261 258 260 260 257 249 248 251 249 249 254
268 291 297 293 283 281 278 274 281 266 260 258 260 255 253 251 249 249 249 246 246 244 247 252 256 258 261 256 260 265 268 265 258 250 245 261 258 250 251 251 250 250 258
315 327 321 305 302 289 281 277 274 274 263 265 264 257 253 252 252 250 251 249 247 248 253 259 260 256 258 261 269 272 266 265 260 247 231 204 231 195 243 237 239 247 259
302 312 324 331 325 317 296 279 276 272 267 265 266 266 254 253 253 255 257 253 252 248 254 263 255 251 254 262 274 272 266 258 256 246 236 235 237 236 243 232 235 258 262
348 345 338 341 334 327 321 298 277 266 267 265 264 268 266 255 249 252 254 254 252 254 263 259 249 246 253 263 274 271 268 257 248 244 242 236 240 242 249 262 261 261 261
346 331 330 335 336 327 316 312 288 274 268 268 264 264 266 263 254 249 245 250 254 257 257 251 248 247 252 263 271 272 261 255 246 239 238 249 244 239 240 248 258 263 267
329 328 327 328 331 330 323 313 295 280 274 267 262 261 262 264 258 250 252 251 250 252 254 250 248 245 252 263 268 268 258 244 240 238 249 239 242 246 252 252 251 257 257
333 322 319 318 328 332 328 314 297 282 274 269 261 258 257 258 260 249 246 249 250 249 255 254 251 242 249 260 266 261 243 232 232 237 230 229 237 239 240 239 235 238 246
336 331 318 312 318 320 321 314 299 286 278 273 268 259 256 255 259 253 246 245 246 250 257 248 242 235 252 255 256 239 229 232 231 224 222 228 231 238 235 233 230 231 246
331 330 318 316 321 318 321 314 307 302 292 281 274 265 258 253 254 251 244 240 245 250 238 235 233 239 247 246 231 226 224 232 218 222 219 221 226 226 224 229 235 234 232
321 324 315 308 312 317 320 314 308 304 313 293 275 267 258 252 252 250 240 236 233 226 223 228 231 245 239 226 222 223 227 208 215 216 220 220 220 223 225 228 233 231 236
308 311 310 309 308 306 310 320 306 298 305 312 286 271 258 251 248 247 235 220 219 223 225 230 237 232 226 221 219 218 206 207 216 217 217 216 217 222 225 227 226 227 233
306 311 308 304 299 301 305 310 306 304 296 308 295 271 259 251 244 243 230 218 220 223 225 228 227 222 219 215 214 220 201 212 215 213 213 219 222 224 225 219 220 225 227
305 311 306 297 295 301 302 300 308 303 295 299 297 278 259 248 242 239 227 220 220 223 223 225 219 215 211 211 212 198 200 210 203 208 215 221 223 225 216 217 221 225 222
302 310 306 295 300 307 310 301 298 300 298 294 293 281 265 250 240 231 222 218 219 222 220 212 206 205 207 207 198 193 205 196 203 211 214 220 219 217 220 223 227 223 219
302 300 296 292 294 301 307 302 297 296 298 292 289 278 273 250 232 220 216 212 215 210 201 200 202 200 199 194 189 198 190 202 204 206 213 220 220 222 226 227 226 224 224
304 297 298 291 295 297 300 296 292 294 297 298 289 269 259 237 213 208 207 202 195 193 195 193 193 194 188 181 180 190 197 196 204 216 225 228 232 230 235 234 228 217 211
300 296 295 293 293 297 292 295 288 288 293 297 290 275 241 214 198 187 184 182 185 188 187 187 188 183 177 177 183 187 194 205 216 224 230 236 232 223 227 221 217 218 214
296 293 292 290 292 292 295 294 286 285 289 294 282 283 220 198 183 177 176 178 178 179 181 184 177 175 175 180 185 191 200 211 220 222 225 224 212 210 217 220 220 221 211
291 290 293 291 289 287 288 292 281 279 281 285 284 275 215 197 182 177 176 174 177 174 173 171 171 175 177 180 185 195 208 212 210 214 217 212 206 216 227 222 213 215 204
293 291 291 289 289 289 286 279 278 273 283 278 272 249 210 198 193 181 178 174 171 166 162 162 168 174 179 179 189 199 204 204 207 206 205 192 194 192 194 223 214 192 187
293 294 289 287 285 284 282 275 269 277 282 273 259 224 204 198 193 191 177 170 160 158 161 167 167 169 173 184 188 193 195 197 189 178 171 172 176 173 170 152 144 149 174
292 291 288 285 288 282 276 277 279 276 277 254 234 198 198 198 189 181 166 158 159 162 166 166 167 167 171 176 179 179 180 175 166 165 163 161 167 169 170 172 167 164 179
295 296 292 284 281 275 270 272 264 267 242 251 187 184 181 179 167 161 160 159 162 163 164 166 167 169 171 174 169 164 162 163 165 165 159 157 155 144 136 143 148 159 172
298 299 296 293 282 274 269 255 258 226 212 167 162 166 163 159 152 150 155 159 161 167 166 168 171 172 174 177 170 172 170 173 173 167 163 162 156 149 146 147 154 157 157
307 307 305 292 273 265 257 241 201 207 155 151 149 152 151 149 151 153 153 156 153 150 154 157 168 166 173 168 162 171 177 175 178 175 168 164 162 159 157 157 157 159 162
Wind_Speed_850mb
20 21 25 27 30 24 21 21 31 30 39 42 45 57 66 78 90 91 87 85 82 62 68 72 70 54 56 45 37 34 34 37 34 37 38 36 37 38 35 35 38 37 37
21 29 35 32 33 37 33 28 21 28 36 43 46 49 51 58 65 76 89 95 86 76 72 80 67 61 53 49 39 37 37 39 34 36 26 14 21 35 38 40 37 37 41
20 21 20 28 34 37 41 42 37 29 32 37 41 47 52 57 57 63 73 91 93 90 82 81 69 60 58 46 40 39 41 41 37 38 21 9 15 6 15 27 31 30 33
16 22 28 27 28 29 32 44 48 45 36 34 39 48 59 64 64 63 65 64 77 89 88 69 65 65 57 45 46 45 46 44 41 39 45 38 28 13 9 19 25 27 23
15 21 22 36 42 40 38 37 42 53 51 45 41 45 54 68 72 71 72 75 76 84 84 68 57 57 49 49 50 52 49 47 45 42 41 42 46 42 36 29 23 26 22
28 31 34 41 43 41 40 43 42 44 53 53 51 51 53 58 72 80 82 80 79 80 75 64 57 52 50 51 51 53 51 46 45 41 42 41 43 36 37 33 33 33 23
39 41 41 42 42 46 45 45 44 46 44 51 59 59 59 55 65 76 87 91 78 77 77 68 58 53 48 48 52 52 51 47 45 40 42 38 41 38 37 31 24 22 19
34 33 38 38 38 49 52 50 46 49 50 50 54 60 64 61 60 71 77 83 78 74 71 65 60 53 45 51 53 49 45 42 41 37 38 35 34 34 39 26 23 15 17
43 37 31 24 35 48 54 55 46 49 50 53 54 58 66 65 61 63 77 79 76 75 64 63 62 49 52 49 46 44 42 40 40 36 38 33 39 38 36 30 22 18 16
43 45 26 25 31 40 49 53 51 49 44 50 54 56 60 68 66 64 78 82 80 67 58 58 58 52 51 45 43 44 40 39 38 38 38 41 39 34 31 28 26 22 17
40 42 35 32 33 40 44 54 57 48 43 41 49 57 57 65 71 66 70 66 57 48 46 52 55 55 54 47 47 44 36 40 38 41 44 41 35 32 30 28 27 23 20
44 42 37 40 40 39 48 55 59 59 55 50 45 54 56 63 74 69 65 52 49 50 51 50 55 58 51 50 48 42 44 40 39 45 44 40 34 33 31 29 27 23 22
43 47 48 48 46 44 47 52 55 61 63 61 50 52 58 65 74 72 64 57 57 56 53 54 55 57 53 51 44 39 43 40 42 43 38 35 34 34 32 30 27 25 24
40 52 56 49 47 50 52 55 59 55 70 65 61 56 60 64 72 73 72 65 63 57 54 52 55 53 54 49 41 44 43 42 41 37 35 33 32 32 31 28 27 27 26
45 51 49 45 49 54 62 61 61 57 68 67 68 61 53 61 68 75 75 69 60 55 53 54 53 54 52 45 45 45 42 43 39 36 32 31 30 31 30 29 31 30 29
60 57 50 53 56 62 70 70 70 63 64 67 66 54 40 52 67 73 72 66 59 55 56 55 57 57 48 46 45 43 43 39 36 32 29 28 28 30 30 30 31 29 30
65 60 65 65 68 74 83 70 72 62 69 62 55 44 40 50 60 67 66 63 60 59 57 57 56 53 52 49 43 40 39 37 33 31 30 30 29 30 30 32 34 33 32
70 72 72 78 81 76 66 68 63 63 60 57 48 42 45 49 58 64 66 63 56 57 60 56 55 57 58 50 45 42 37 34 31 31 30 28 28 29 30 28 30 35 36
86 81 74 74 76 69 71 68 61 55 59 53 51 41 47 54 65 67 63 58 61 59 60 58 64 64 55 48 44 39 34 31 30 26 25 25 26 27 27 28 28 33 36
69 70 73 70 67 60 56 56 54 60 57 55 49 37 48 59 61 59 58 64 64 66 67 68 62 55 51 48 40 34 31 29 26 23 22 24 26 25 24 23 26 31 38
71 68 65 65 62 56 48 51 52 66 56 46 44 35 50 51 51 53 66 68 69 73 72 65 58 52 47 42 36 30 28 24 21 19 20 25 25 21 18 16 27 30 34
68 68 61 61 53 48 45 50 52 54 49 48 36 42 53 58 50 57 69 73 81 73 66 63 59 49 42 34 32 29 24 18 18 23 24 27 26 23 17 20 22 23 29
66 63 59 53 54 43 44 50 49 47 46 37 31 59 59 55 54 68 80 80 79 73 70 63 54 47 40 33 29 25 22 22 23 27 24 25 24 20 20 25 28 22 23
66 65 60 51 54 44 45 47 36 39 34 29 55 58 60 60 76 86 83 86 76 73 65 57 50 45 41 35 30 27 24 27 26 29 29 23 26 31 34 33 28 22 19
69 69 65 57 53 48 45 37 38 35 35 64 64 65 69 82 86 84 72 66 62 51 50 46 41 43 41 31 29 30 27 26 29 32 33 34 39 37 34 28 20 19 17
76 70 59 53 48 48 38 21 31 31 43 67 72 84 83 87 85 83 77 62 46 37 31 31 33 38 26 28 32 26 29 29 29 36 42 40 41 39 33 25 19 19 16
Wind_Direction_850mb
281 281 286 286 287 275 268 270 256 253 249 252 247 241 243 245 246 242 242 247 249 239 246 251 259 262 257 254 257 258 265 268 261 258 260 260 257 249 248 251 249 249 254
268 291 297 293 283 281 278 274 281 266 260 258 260 255 253 251 249 249 249 246 246 244 247 252 256 258 261 256 260 265 268 265 258 250 245 261 258 250 251 251 250 250 258
315 327 321 305 302 289 281 277 274 274 263 265 264 257 253 252 252 250 251 249 247 248 253 259 260 256 258 261 269 272 266 265 260 247 231 204 231 195 243 237 239 247 259
302 312 324 331 325 317 296 279 276 272 267 265 266 266 254 253 253 255 257 253 252 248 254 263 255 251 254 262 274 272 266 258 256 246 236 235 237 236 243 232 235 258 262
348 345 338 341 334 327 321 298 277 266 267 265 264 268 266 255 249 252 254 254 252 254 263 259 249 246 253 263 274 271 268 257 248 244 242 236 240 242 249 262 261 261 261
346 331 330 335 336 327 316 312 288 274 268 268 264 264 266 263 254 249 245 250 254 257 257 251 248 247 252 263 271 272 261 255 246 239 238 249 244 239 240 248 258 263 267
329 328 327 328 331 330 323 313 295 280 274 267 262 261 262 264 258 250 252 251 250 252 254 250 248 245 252 263 268 268 258 244 240 238 249 239 242 246 252 252 251 257 257
333 322 319 318 328 332 328 314 297 282 274 269 261 258 257 258 260 249 246 249 250 249 255 254 251 242 249 260 266 261 243 232 232 237 230 229 237 239 240 239 235 238 246
336 331 318 312 318 320 321 314 299 286 278 273 268 259 256 255 259 253 246 245 246 250 257 248 242 235 252 255 256 239 229 232 231 224 222 228 231 238 235 233 230 231 246
331 330 318 316 321 318 321 314 307 302 292 281 274 265 258 253 254 251 244 240 245 250 238 235 233 239 247 246 231 226 224 232 218 222 219 221 226 226 224 229 235 234 232
321 324 315 308 312 317 320 314 308 304 313 293 275 267 258 252 252 250 240 236 233 226 223 228 231 245 239 226 222 223 227 208 215 216 220 220 220 223 225 228 233 231 236
308 311 310 309 308 306 310 320 306 298 305 312 286 271 258 251 248 247 235 220 219 223 225 230 237 232 226 221 219 218 206 207 216 217 217 216 217 222 225 227 226 227 233
306 311 308 304 299 301 305 310 306 304 296 308 295 271 259 251 244 243 230 218 220 223 225 228 227 222 219 215 214 220 201 212 215 213 213 219 222 224 225 219 220 225 227
305 311 306 297 295 301 302 300 308 303 295 299 297 278 259 248 242 239 227 220 220 223 223 225 219 215 211 211 212 198 200 210 203 208 215 221 223 225 216 217 221 225 222
302 310 306 295 300 307 310 301 298 300 298 294 293 281 265 250 240 231 222 218 219 222 220 212 206 205 207 207 198 193 205 196 203 211 214 220 219 217 220 223 227 223 219
302 300 296 292 294 301 307 302 297 296 298 292 289 278 273 250 232 220 216 212 215 210 201 200 202 200 199 194 189 198 190 202 204 206 213 220 220 222 226 227 226 224 224
304 297 298 291 295 297 300 296 292 294 297 298 289 269 259 237 213 208 207 202 195 193 195 193 193 194 188 181 180 190 197 196 204 216 225 228 232 230 235 234 228 217 211
300 296 295 293 293 297 292 295 288 288 293 297 290 275 241 214 198 187 184 182 185 188 187 187 188 183 177 177 183 187 194 205 216 224 230 236 232 223 227 221 217 218 214
296 293 292 290 292 292 295 294 286 285 289 294 282 283 220 198 183 177 176 178 178 179 181 184 177 175 175 180 185 191 200 211 220 222 225 224 212 210 217 220 220 221 211
291 290 293 291 289 287 288 292 281 279 281 285 284 275 215 197 182 177 176 174 177 174 173 171 171 175 177 180 185 195 208 212 210 214 217 212 206 216 227 222 213 215 204
293 291 291 289 289 289 286 279 278 273 283 278 272 249 210 198 193 181 178 174 171 166 162 162 168 174 179 179 189 199 204 204 207 206 205 192 194 192 194 223 214 192 187
293 294 289 287 285 284 282 275 269 277 282 273 259 224 204 198 193 191 177 170 160 158 161 167 167 169 173 184 188 193 195 197 189 178 171 172 176 173 170 152 144 149 174
292 291 288 285 288 282 276 277 279 276 277 254 234 198 198 198 189 181 166 158 159 162 166 166 167 167 171 176 179 179 180 175 166 165 163 161 167 169 170 172 167 164 179
295 296 292 284 281 275 270 272 264 267 242 251 187 184 181 179 167 161 160 159 162 163 164 166 167 169 171 174 169 164 162 163 165 165 159 157 155 144 136 143 148 159 172
298 299 296 293 282 274 269 255 258 226 212 167 162 166 163 159 152 150 155 159 161 167 166 168 171 172 174 177 170 172 170 173 173 167 163 162 156 149 146 147 154 157 157
307 307 305 292 273 265 257 241 201 207 155 151 149 152 151 149 151 153 153 156 153 150 154 157 168 166 173 168 162 171 177 175 178 175 168 164 162 159 157 157 157 159 162